When you browse on this site, cookies collect data to enhance your experience and personalize the content and advertising you see.
Visit our Privacy Policy to learn more. By continuing to use the site, you agree to this use of cookies and data.
  • En España
  • Lista de países
  • Para 7 días
  • Temperatura del agua
  • Mapa Satelital
  • El tiempo en el mapa
  • Informadores
  • user-avatar
    Iniciar sesión

    Tiempo cada hora Artashat

    Hoy, 16 Diciembre, Domingo

    Tiempo Temperatura Precipitaciones Viento Presión Humedad
    00:00 -2°C° 0 mm 1 mps 603 mmHg 66%
    01:00 -2°C° 0 mm 1 mps 603 mmHg 66%
    02:00 -4°C° 0 mm 2 mps 603 mmHg 66%
    03:00 -3°C° 0 mm 1 mps 603 mmHg 66%
    04:00 -5°C° 0 mm 2 mps 602 mmHg 66%
    05:00 -5°C° 0 mm 2 mps 602 mmHg 66%
    06:00 -5°C° 0 mm 2 mps 602 mmHg 66%
    07:00 -4°C° 0 mm 2 mps 603 mmHg 64%
    08:00 -1°C° 0 mm 1 mps 603 mmHg 61%
    09:00 0°C° 0 mm 1 mps 603 mmHg 58%
    10:00 +1°C° 0 mm 1 mps 603 mmHg 56%
    11:00 +2°C° 0 mm 1 mps 603 mmHg 54%
    12:00 +2°C° 0 mm 2 mps 603 mmHg 51%
    13:00 +3°C° 0 mm 2 mps 603 mmHg 51%
    14:00 +3°C° 0 mm 2 mps 603 mmHg 51%
    15:00 +3°C° 0 mm 2 mps 603 mmHg 51%
    16:00 +2°C° 0 mm 2 mps 603 mmHg 54%
    17:00 -1°C° 0 mm 2 mps 603 mmHg 57%
    18:00 -2°C° 0 mm 2 mps 602 mmHg 60%
    19:00 -2°C° 0 mm 2 mps 602 mmHg 60%
    20:00 -2°C° 0 mm 2 mps 602 mmHg 59%
    21:00 -3°C° 0 mm 2 mps 602 mmHg 59%
    22:00 -3°C° 0 mm 2 mps 602 mmHg 59%
    23:00 -3°C° 0 mm 2 mps 602 mmHg 58%

    Mañana, 17 Diciembre, Lunes

    Tiempo Temperatura Precipitaciones Viento Presión Humedad
    00:00 -3°C° 0 mm 2 mps 602 mmHg 58%
    01:00 -3°C° 0 mm 2 mps 602 mmHg 57%
    02:00 -4°C° 0 mm 2 mps 602 mmHg 57%
    03:00 -4°C° 0 mm 2 mps 602 mmHg 57%
    04:00 -4°C° 0 mm 2 mps 601 mmHg 56%
    05:00 -1°C° 0 mm 1 mps 601 mmHg 55%
    06:00 -1°C° 0 mm 1 mps 601 mmHg 54%
    07:00 -1°C° 0 mm 1 mps 601 mmHg 53%
    08:00 0°C° 0 mm 1 mps 602 mmHg 52%
    09:00 +1°C° 0 mm 1 mps 602 mmHg 50%
    10:00 +1°C° 0 mm 1 mps 602 mmHg 50%
    11:00 +2°C° 0 mm 1 mps 601 mmHg 49%
    12:00 +3°C° 0 mm 1 mps 601 mmHg 49%
    13:00 +3°C° 0.1 mm 1 mps 601 mmHg 52%
    14:00 +1°C° 0.1 mm 2 mps 601 mmHg 55%
    15:00 +1°C° 0.1 mm 2 mps 600 mmHg 58%
    16:00 +1°C° 0.2 mm 1 mps 600 mmHg 63%
    17:00 +1°C° 0.2 mm 1 mps 600 mmHg 67%
    18:00 0°C° 0.2 mm 1 mps 599 mmHg 72%
    19:00 0°C° 0.3 mm 1 mps 599 mmHg 74%
    20:00 -1°C° 0.3 mm 1 mps 599 mmHg 77%
    21:00 -2°C° 0.3 mm 0 mps 599 mmHg 79%
    22:00 -2°C° 0.3 mm 0 mps 599 mmHg 80%
    23:00 -2°C° 0.3 mm 0 mps 599 mmHg 81%

    Pasado mañana, 18 Diciembre, Martes

    Tiempo Temperatura Precipitaciones Viento Presión Humedad
    00:00 -2°C° 0.3 mm 0 mps 599 mmHg 82%
    01:00 -2°C° 0.3 mm 0 mps 599 mmHg 82%
    02:00 -2°C° 0.3 mm 0 mps 599 mmHg 83%
    03:00 -1°C° 0.3 mm 1 mps 599 mmHg 83%
    04:00 -2°C° 0.1 mm 1 mps 599 mmHg 83%
    05:00 -3°C° 0.1 mm 0 mps 599 mmHg 83%
    06:00 -3°C° 0.1 mm 0 mps 599 mmHg 83%
    07:00 -1°C° 0 mm 1 mps 599 mmHg 81%
    08:00 -1°C° 0 mm 1 mps 600 mmHg 79%
    09:00 -1°C° 0 mm 1 mps 601 mmHg 77%
    10:00 0°C° 0 mm 1 mps 601 mmHg 74%
    11:00 +1°C° 0 mm 1 mps 601 mmHg 72%
    12:00 +2°C° 0 mm 1 mps 601 mmHg 70%
    13:00 +1°C° 0 mm 2 mps 601 mmHg 69%
    14:00 +1°C° 0 mm 2 mps 601 mmHg 69%
    15:00 +1°C° 0 mm 2 mps 601 mmHg 68%
    16:00 -1°C° 0 mm 2 mps 601 mmHg 71%
    17:00 -2°C° 0 mm 2 mps 601 mmHg 74%
    18:00 -3°C° 0 mm 2 mps 601 mmHg 77%
    19:00 -3°C° 0 mm 2 mps 601 mmHg 77%
    20:00 -4°C° 0 mm 2 mps 602 mmHg 77%
    21:00 -4°C° 0 mm 2 mps 602 mmHg 76%
    22:00 -2°C° 0 mm 1 mps 602 mmHg 77%
    23:00 -2°C° 0 mm 1 mps 602 mmHg 77%

    19 Diciembre, Miércoles

    Tiempo Temperatura Precipitaciones Viento Presión Humedad
    00:00 -2°C° 0 mm 1 mps 602 mmHg 77%
    01:00 -2°C° 0 mm 1 mps 602 mmHg 77%
    02:00 -2°C° 0 mm 1 mps 602 mmHg 78%
    03:00 -2°C° 0 mm 1 mps 602 mmHg 78%
    04:00 -2°C° 0 mm 1 mps 602 mmHg 78%
    05:00 -3°C° 0 mm 1 mps 602 mmHg 78%
    06:00 -3°C° 0 mm 1 mps 602 mmHg 78%
    07:00 -4°C° 0 mm 2 mps 602 mmHg 75%
    08:00 -3°C° 0 mm 2 mps 603 mmHg 73%
    09:00 -3°C° 0 mm 2 mps 603 mmHg 70%
    10:00 -2°C° 0 mm 2 mps 603 mmHg 68%
    11:00 -1°C° 0 mm 2 mps 603 mmHg 65%
    12:00 +1°C° 0 mm 2 mps 603 mmHg 63%
    13:00 +1°C° 0 mm 2 mps 603 mmHg 63%
    14:00 +1°C° 0 mm 2 mps 602 mmHg 63%
    15:00 +1°C° 0 mm 2 mps 602 mmHg 64%
    16:00 -1°C° 0 mm 2 mps 602 mmHg 67%
    17:00 -2°C° 0 mm 2 mps 601 mmHg 71%
    18:00 -3°C° 0 mm 2 mps 601 mmHg 74%
    19:00 -3°C° 0 mm 2 mps 601 mmHg 73%
    20:00 -1°C° 0 mm 1 mps 601 mmHg 73%
    21:00 -1°C° 0 mm 1 mps 601 mmHg 72%
    22:00 -1°C° 0 mm 1 mps 601 mmHg 72%
    23:00 -2°C° 0 mm 1 mps 601 mmHg 72%

    20 Diciembre, Jueves

    Tiempo Temperatura Precipitaciones Viento Presión Humedad
    00:00 -2°C° 0 mm 1 mps 601 mmHg 72%
    01:00 -2°C° 0 mm 1 mps 600 mmHg 72%
    02:00 -2°C° 0 mm 1 mps 600 mmHg 71%
    03:00 -2°C° 0 mm 1 mps 600 mmHg 71%
    04:00 -2°C° 0 mm 1 mps 600 mmHg 71%
    05:00 -2°C° 0 mm 1 mps 599 mmHg 72%
    06:00 -2°C° 0 mm 1 mps 599 mmHg 73%
    07:00 -1°C° 0 mm 1 mps 599 mmHg 72%
    08:00 -1°C° 0 mm 1 mps 600 mmHg 71%
    09:00 0°C° 0 mm 1 mps 600 mmHg 70%
    10:00 0°C° 0.1 mm 1 mps 600 mmHg 69%
    11:00 +1°C° 0.1 mm 1 mps 600 mmHg 69%
    12:00 +1°C° 0.1 mm 1 mps 599 mmHg 69%
    13:00 +1°C° 0.1 mm 1 mps 599 mmHg 70%
    14:00 +1°C° 0.1 mm 1 mps 599 mmHg 71%
    15:00 +1°C° 0.1 mm 1 mps 599 mmHg 72%
    16:00 +1°C° 0.1 mm 1 mps 599 mmHg 75%
    17:00 0°C° 0.1 mm 1 mps 599 mmHg 77%
    18:00 -1°C° 0.1 mm 1 mps 599 mmHg 79%
    19:00 -1°C° 0.1 mm 1 mps 599 mmHg 79%
    20:00 -1°C° 0.1 mm 1 mps 599 mmHg 80%
    21:00 -1°C° 0.1 mm 1 mps 599 mmHg 80%
    22:00 -1°C° 0.1 mm 1 mps 599 mmHg 80%
    23:00 -1°C° 0.1 mm 1 mps 599 mmHg 81%

    21 Diciembre, Viernes

    Tiempo Temperatura Precipitaciones Viento Presión Humedad
    00:00 -2°C° 0.1 mm 1 mps 599 mmHg 81%
    01:00 -2°C° 0.2 mm 1 mps 599 mmHg 82%
    02:00 -2°C° 0.2 mm 1 mps 599 mmHg 82%
    03:00 -3°C° 0.2 mm 0 mps 598 mmHg 83%
    04:00 -3°C° 0.2 mm 0 mps 598 mmHg 83%
    05:00 -3°C° 0.2 mm 0 mps 598 mmHg 83%
    06:00 -3°C° 0.2 mm 0 mps 598 mmHg 83%
    07:00 -3°C° 0.3 mm 0 mps 599 mmHg 82%
    08:00 -3°C° 0.3 mm 0 mps 599 mmHg 81%
    09:00 -2°C° 0.3 mm 0 mps 599 mmHg 80%
    10:00 -1°C° 0.3 mm 1 mps 599 mmHg 79%
    11:00 -1°C° 0.3 mm 1 mps 599 mmHg 78%
    12:00 0°C° 0.3 mm 1 mps 599 mmHg 77%
    13:00 0°C° 0.3 mm 1 mps 599 mmHg 77%
    14:00 0°C° 0.3 mm 1 mps 599 mmHg 77%
    15:00 0°C° 0.3 mm 1 mps 599 mmHg 77%
    16:00 -1°C° 0.2 mm 1 mps 599 mmHg 79%
    17:00 -2°C° 0.2 mm 1 mps 599 mmHg 81%
    18:00 -2°C° 0.2 mm 1 mps 599 mmHg 82%
    19:00 -2°C° 0.1 mm 1 mps 600 mmHg 82%
    20:00 -3°C° 0.1 mm 1 mps 600 mmHg 83%
    21:00 -3°C° 0.1 mm 1 mps 600 mmHg 83%
    22:00 -3°C° 0 mm 1 mps 600 mmHg 82%
    23:00 -4°C° 0 mm 1 mps 600 mmHg 82%
    Mostrar más